STARLINK-11343, 62017

Orbit data source: Space-Track

STARLINK-11343, 62017 is a payload satellite owned by SpaceX/Seattle (US) in LEO that was launched on Mon, 18 Nov 2024 UTC via an FALCON 9 launch vehicle from the Air Force Western Test Range (AFWTR). Payload-class satellites include a variety of spacecraft equipped with specific instruments for various scientific and technological missions. These include communications satellites like Starlink; space stations such as the ISS; scientific satellites like the Hubble; Earth observation satellites from companies like Planet Labs, Umbra, and HawkEye 360; GPS; miniature CubeSats for education and research; and military/defense satellites.

Loading next visibility...
Identifier
62017, 2024-213K
Orbit
LEO
Last TLE update
16 hours ago
Origin
Manufacturer
SpaceX/Seattle
Mission
Operational Commercial Communications
Bus & Motor
STARLINK V2M, Unknown motor
Mass
730 kg wet, ~700 kg dry
Launch date (UTC)
2024-11-18 (8 months ago)
Launch vehicle
FALCON 9
Launch site
Air Force Western Test Range (AFWTR)
Object type
Payload
Rocket body
Debris
Shape & HBR
Box + 2 Pan, 29 m
Radar Cross Section
36.964 m², Large (>1 m²)

Expand to show TLE details & history

TLE from 16 hours ago
0 STARLINK-11343
1 62017U 24213K   25186.39795902  .00133015  00000-0  10835-2 0  9996
2 62017  53.1566 180.4380 0001159  83.8338 276.2812 15.69749110 36074
Epoch: 2025-07-05T09:33Z
TLE epoch observation values (Epoch: 2025-07-05T09:33:03.659Z)
Latitude
-0.00001°
Longitude
113.53617°
Altitude
360.444 km
Speed
7.694 km/s
True Right ascension
12h 01m 45s
True Declination
0° 00' 00"
Sunlit
Object was in daylight at epoch
Visualization orbit readout
Latitude
52.26472°
Longitude
-144.01102°
Altitude
364.692 km
Speed
7.697 km/s
Apparent Right ascension
22h 22m 47s
Apparent Declination
11° 25' 47"
Sunlit
Object is in daylight
Visualization observer readout
Local Sidereal Time
13:11:47
Azimuth
46.863° ENE
Elevation
-25.423°
Doppler factor
1
Orbital elements
Apogee altitude
360.657 km
Perigee altitude
359.095 km
Semi-major axis
6,738.013 km
Eccentricity
0.00012
Inclination
53.1566°
RAAN
180.438°
Arg. of periapsis
83.8338°
True anomaly
Unknown
Mean anomaly
276.2812°
Eccentric anomaly
Unknown
Mean motion
3.92415 °/min
Orbital period
91.74 mins
BSTAR
0.0010835
Loading maneuver chart data...
Loading SW <> Apogee altitude chart data...
Loading historical data...
Loading historical data...
Loading historical data...
Loading historical data...
Loading historical data...
Loading historical data...
Loading historical data...

STARLINK-11343 Visibility forecast

Observer location: undefined°, undefined°

Span
Click to sort rows by Start time (UTC) header in descending order
Start Az.
Max El. time (UTC)
Max El. Az.
Max El.
End time (UTC)
End Az.
5 mins2025-07-06 02:33:08.584Z238.399° WSW2025-07-06 02:35:08.584Z281.948° WNW41.956°2025-07-06 02:38:08.584Z45.431° ENE
4 mins2025-07-06 08:58:08.584Z317.455° NNW2025-07-06 09:00:08.584Z55.505° ENE42.948°2025-07-06 09:02:08.584Z121.03° SE
|